Hourly Data Report for April 15, 2021

KENORA A
ONTARIO
Current Station Operator: NAVCAN

49°47'18.000" N
94°21'47.000" W
409.70 m
6034076
71850
YQK

Download Data

Hourly Data (April 2021)
Hourly Data Report for April 15, 2021
TIME
LST
Temp Definition
°C
Dew Point Definition
°C
Rel Hum Definition
%
Precip. Amount Definition
mm

Wind Dir Definition
10's deg

Wind Spd Definition
km/h
Visibility Definition
km
Stn Press Definition
kPa
Hmdx Definition


Wind Chill Definition


Weather Definition


00:00 -0.7 -2.8 86   3 9 32.2 97.63   -4 Cloudy
01:00 -0.7 -3.1 84   2 10 32.2 97.62   -4 LegendNANA
02:00
03:00 -1.0 -2.9 87   36 9 32.2 97.60   -4 Cloudy
04:00 -1.0 -2.9 87   1 10 32.2 97.60   -5 LegendNANA
05:00 -1.1 -3.2 86   3 13 32.2 97.60   -5 LegendNANA
06:00 -1.2 -3.2 86   2 9 32.2 97.60   -4 Cloudy
07:00 -0.9 -3.3 84   3 12 32.2 97.59   -5 LegendNANA
08:00 -0.4 -3.1 82   3 8 32.2 97.58   -3 LegendNANA
09:00 0.8 -3.8 71   2 9 32.2 97.55     Mostly Cloudy
10:00 3.3 -4.4 57   4 7 32.2 97.52     LegendNANA
11:00 4.6 -3.8 54   4 11 32.2 97.49     LegendNANA
12:00 5.2 -5.0 48   36 16 32.2 97.45     Mostly Cloudy
13:00 6.4 -4.5 46   3 12 32.2 97.40     LegendNANA
14:00 7.7 -3.1 46   2 12 32.2 97.36     LegendNANA
15:00 8.7 -3.0 44   1 18 32.2 97.33     Mostly Cloudy
16:00 8.9 -5.3 36   1 11 32.2 97.30     LegendNANA
17:00 8.6 -2.5 46   33 18 32.2 97.30     LegendNANA
18:00 6.7 -3.0 50   34 14 32.2 97.32     Mostly Cloudy
19:00 4.8 -4.1 52   3 9 32.2 97.29     LegendNANA
20:00 3.7 -4.3 56   4 8 24.1 97.31     LegendNANA
21:00 2.8 -4.6 58   2 8 24.1 97.31     Mainly Clear
22:00 2.9 -5.5 54   35 7 24.1 97.31     LegendNANA
23:00 3.0 -6.3 51   34 7 24.1 97.32     LegendNANA

Notes on Data Quality.

Legend

  • E = Estimated
  • M = Missing
  • NA = Not Available*
  • [empty] = Indicates an unobserved value
Date modified: